Wind_Speed
24 23 22 22 21 20 20 21 21 21 20 20 20 20 19 19 19 19 20 20 20 20 20 20 21 21 22 23 24 25 26 27 28 29 29 30 30 31 32 33 33 34 35 36
24 23 23 22 21 20 20 20 21 20 20 19 19 19 19 19 19 19 20 20 20 20 21 21 22 23 24 25 26 26 27 28 29 29 30 30 31 32 33 33 34 35 35 36
24 24 22 22 21 20 20 20 20 20 19 19 19 19 19 19 19 20 20 21 21 21 21 22 23 24 26 27 27 28 29 29 30 30 30 30 31 31 32 32 33 34 35 36
25 24 23 22 21 21 20 20 20 19 19 18 18 18 18 19 20 20 21 21 21 22 22 23 25 26 27 28 29 29 30 30 30 29 29 29 29 30 31 32 33 34 36 37
25 24 23 22 22 21 20 20 19 19 19 18 18 19 18 19 20 21 21 22 22 23 24 25 26 28 28 29 30 30 30 30 30 29 29 29 30 31 32 33 34 36 38 39
24 23 23 22 22 21 20 20 20 19 19 18 18 19 19 19 20 22 22 23 23 24 25 27 28 29 30 30 31 31 31 30 30 30 30 31 32 33 34 35 37 39 41 43
24 23 23 22 22 21 20 20 20 19 19 19 19 20 20 20 21 22 23 24 24 26 27 29 30 30 31 31 31 31 31 31 31 32 32 33 35 36 37 39 41 43 45 47
24 23 22 22 21 21 20 20 20 20 20 19 19 20 20 21 22 24 25 25 26 28 29 30 31 32 32 32 32 31 32 32 33 34 35 37 39 40 42 43 45 47 49 52
24 23 23 22 22 21 20 20 21 21 21 21 21 21 21 22 24 25 26 28 29 30 31 32 32 33 33 32 32 33 34 35 36 37 39 40 42 44 45 47 50 52 54 56
24 23 22 22 21 22 22 21 21 22 23 23 22 21 22 24 25 27 29 30 31 32 33 33 34 34 34 34 34 35 36 37 38 40 41 43 45 47 49 51 54 56 59 61
23 23 22 22 22 22 22 22 23 24 25 25 25 23 24 26 27 29 30 32 33 33 34 35 36 36 36 36 37 38 39 40 41 43 45 46 48 51 53 55 58 61 63 66
23 24 23 23 23 24 24 24 25 26 26 27 28 26 26 28 29 31 32 33 35 36 36 37 38 38 38 38 39 40 41 42 44 46 48 50 52 55 57 60 62 65 68 70
25 25 25 25 25 25 25 25 26 28 28 29 29 27 28 31 33 34 35 36 37 37 38 39 39 39 40 40 41 42 44 45 47 49 51 54 56 59 61 64 66 69 72 74
27 27 27 26 27 26 26 26 27 29 30 31 29 29 30 33 35 36 37 37 38 38 39 40 40 41 41 42 43 45 46 48 50 53 55 57 60 63 65 68 70 73 76 78
29 29 28 28 28 29 29 29 29 30 31 33 32 32 32 35 37 38 38 38 39 40 40 41 41 42 43 44 46 48 49 51 54 56 58 61 63 66 69 71 74 77 79 81
31 30 30 30 30 31 31 30 30 31 32 34 35 34 34 37 38 39 39 39 40 40 41 42 43 44 45 47 48 50 52 54 57 59 61 64 67 69 72 74 77 79 81 83
32 32 33 33 32 35 34 30 31 33 33 35 36 36 37 38 39 39 40 41 41 42 43 44 44 46 47 48 50 52 55 57 59 62 64 67 70 72 75 77 79 82 84 86
34 34 35 36 35 37 35 33 33 35 35 36 38 38 39 40 40 41 41 42 42 43 44 45 46 47 49 51 53 55 57 59 62 64 67 70 72 75 77 80 82 84 86 87
35 35 37 38 39 39 36 35 36 37 37 37 39 39 40 41 42 42 42 43 43 44 45 46 47 49 51 53 55 57 59 62 65 67 70 72 75 77 80 82 84 86 87 86
36 36 38 40 41 42 39 38 38 40 39 38 39 40 41 42 42 42 43 43 43 44 45 46 48 50 52 55 57 59 62 65 67 69 72 74 77 80 82 84 86 86 86 83
37 38 39 40 42 43 42 41 40 41 41 40 40 41 41 41 41 42 42 43 44 45 46 48 50 52 55 57 59 62 64 67 69 72 74 76 79 82 84 85 85 84 81 77
39 40 41 41 43 44 43 42 42 42 42 42 42 41 41 41 42 43 43 44 44 46 48 50 52 54 57 59 62 64 67 69 71 74 76 78 81 83 84 84 82 79 75 70
41 41 41 42 43 43 43 44 43 43 43 43 43 42 42 43 43 43 43 44 45 47 50 52 54 56 59 62 64 66 69 71 73 75 78 80 82 83 82 81 77 72 68 64
40 41 42 42 42 43 44 44 44 44 44 43 43 43 43 43 43 43 44 46 47 49 51 54 56 58 61 63 66 69 71 73 75 77 80 82 82 81 78 75 71 67 63 60
41 41 42 42 42 43 44 44 44 44 44 44 44 44 43 43 44 45 46 48 49 51 54 56 58 61 63 65 68 70 73 75 77 80 81 81 80 78 74 70 66 62 59 57
40 40 41 41 42 43 43 43 44 44 44 44 44 43 43 44 45 46 47 49 51 54 56 58 61 63 65 67 70 72 75 77 80 81 80 79 77 74 69 65 60 57 55 53
Wind_Direction
243 248 253 257 260 265 269 271 273 275 276 276 274 274 275 276 277 279 282 284 287 289 291 292 294 294 294 294 294 294 294 294 294 293 292 290 289 289 288 287 287 287 286 285
242 248 252 256 260 264 267 269 272 274 275 274 272 272 274 276 279 281 284 286 288 290 292 293 294 293 293 294 295 295 295 295 294 293 292 291 290 289 288 288 287 287 287 287
241 247 251 255 259 262 265 268 272 273 272 271 270 270 273 276 279 281 284 286 287 289 291 292 292 292 293 294 296 296 296 295 295 294 293 292 291 291 291 290 290 290 290 290
241 245 250 253 257 260 265 268 270 270 269 269 269 269 272 276 279 281 283 285 287 288 290 291 292 292 294 295 296 296 296 295 295 293 292 292 292 292 292 292 292 292 292 292
240 244 248 252 255 258 263 266 267 267 267 267 267 268 271 275 279 281 282 284 286 289 290 291 291 293 294 295 295 294 294 294 293 291 291 291 291 292 292 292 293 293 293 293
240 243 247 252 255 258 261 263 264 264 265 265 265 269 273 276 279 280 282 284 287 288 289 291 292 293 294 294 294 293 292 291 290 289 290 290 291 291 292 292 293 293 294 294
240 242 246 249 253 256 259 261 262 263 263 265 266 269 274 276 278 281 282 285 287 289 290 291 292 293 294 293 292 291 291 290 289 289 289 290 290 291 292 292 293 294 294 295
238 241 245 249 253 256 256 259 262 265 266 267 268 272 277 279 280 282 284 286 288 290 291 292 293 294 294 292 291 291 290 290 289 289 289 290 290 291 292 293 294 295 296 296
237 242 246 250 252 254 256 259 263 267 269 270 272 276 278 281 283 284 286 288 289 290 291 292 294 294 292 291 290 290 291 291 291 291 291 291 292 293 294 294 295 296 297 297
238 242 245 249 251 253 257 260 263 267 272 274 275 278 281 282 284 285 287 288 289 291 291 292 293 293 291 290 290 291 291 291 291 292 292 293 293 294 295 296 297 298 299 299
237 241 244 248 251 254 257 261 265 269 273 278 280 280 284 284 285 286 287 288 290 291 292 293 293 292 291 291 291 291 292 292 293 293 294 295 296 297 298 299 299 300 301 301
240 243 246 250 253 256 259 263 267 272 276 279 282 285 286 286 286 287 288 290 291 291 292 293 293 292 292 292 292 292 293 293 294 295 296 297 298 299 300 301 301 302 303 303
243 246 249 252 255 258 262 265 269 273 277 280 283 287 287 287 288 289 291 292 292 292 292 292 292 292 292 293 293 293 294 295 296 297 298 300 300 301 302 303 304 304 304 305
246 249 252 255 258 260 263 267 271 275 279 281 283 284 286 286 288 290 292 292 293 292 292 292 292 292 293 293 294 294 295 296 298 299 301 301 302 303 304 304 305 305 306 306
249 252 254 256 260 263 265 268 272 276 280 282 283 283 285 286 288 291 292 292 292 292 292 292 292 292 293 294 294 295 297 298 300 301 302 303 304 305 305 306 306 307 307 307
251 254 256 258 261 264 266 270 274 277 279 282 283 284 284 286 288 290 291 292 292 292 292 292 292 293 293 294 295 296 298 299 301 302 303 304 305 305 306 307 307 308 308 309
252 256 258 260 262 265 268 272 274 277 279 281 284 285 286 286 287 289 290 290 291 291 291 291 292 293 293 295 296 297 299 300 302 303 304 305 306 307 307 308 308 309 309 310
253 256 260 262 264 266 271 272 274 277 279 282 284 286 287 288 288 289 289 289 290 290 290 290 291 293 294 295 297 298 300 301 303 304 305 306 307 308 308 309 309 310 310 311
254 256 260 264 266 268 270 274 277 278 280 283 285 287 288 289 289 289 289 289 289 289 290 291 292 293 295 296 298 300 301 303 304 306 307 307 308 309 309 310 310 311 311 312
255 257 261 265 269 272 274 276 278 280 283 284 286 287 288 289 290 289 289 288 288 289 290 291 293 294 296 298 299 301 303 304 306 307 308 308 309 310 310 311 312 312 312 313
256 258 262 266 271 274 278 281 282 284 286 287 288 289 290 290 290 289 288 288 288 290 291 292 294 296 297 299 301 303 304 305 307 308 308 309 310 311 312 312 313 313 313 313
258 260 263 267 271 277 280 282 283 285 286 288 289 290 290 289 289 288 288 289 289 290 292 294 296 298 299 301 302 304 305 306 307 309 310 310 311 312 313 314 314 313 313 312
261 263 266 269 272 276 278 281 283 285 287 288 289 289 290 290 289 289 289 289 290 291 293 295 297 299 301 302 304 305 306 307 308 310 311 312 313 313 314 314 314 313 312 311
263 266 268 270 273 276 278 280 282 284 286 287 288 289 290 289 289 288 289 290 291 293 295 297 299 301 302 304 305 306 307 308 309 311 312 313 314 314 314 314 313 312 311 311
265 268 270 272 275 277 278 280 281 284 285 287 288 289 288 288 287 288 289 291 293 295 297 299 301 302 303 305 306 307 308 309 311 312 313 314 314 314 314 313 312 312 311 310
267 270 271 273 275 277 278 279 281 283 285 286 287 286 286 287 287 289 290 292 294 297 298 300 302 303 305 306 307 308 310 311 312 313 314 314 314 314 313 312 312 311 311 310
Height
5828 5831 5831 5832 5832 5833 5833 5833 5832 5832 5832 5831 5831 5830 5830 5829 5829 5828 5827 5827 5826 5825 5824 5823 5822 5820 5819 5817 5815 5814 5812 5810 5807 5805 5803 5801 5798 5796 5794 5792 5789 5787 5785 5783
5824 5825 5826 5826 5827 5828 5828 5828 5828 5827 5827 5827 5826 5825 5825 5824 5824 5823 5823 5822 5821 5820 5819 5818 5817 5815 5813 5812 5810 5808 5806 5803 5801 5798 5796 5794 5791 5789 5786 5784 5781 5779 5777 5774
5817 5820 5820 5821 5822 5823 5823 5823 5823 5823 5822 5822 5822 5821 5820 5820 5819 5818 5818 5817 5816 5815 5814 5813 5811 5809 5808 5806 5804 5802 5799 5797 5794 5792 5789 5786 5784 5781 5779 5776 5773 5771 5768 5765
5811 5814 5815 5816 5817 5817 5818 5818 5818 5818 5818 5818 5818 5817 5816 5815 5815 5814 5813 5812 5811 5810 5809 5807 5806 5804 5802 5800 5797 5795 5792 5790 5787 5785 5782 5779 5777 5774 5771 5769 5766 5763 5760 5757
5806 5808 5809 5810 5811 5812 5813 5813 5813 5813 5813 5813 5813 5812 5813 5811 5810 5809 5808 5807 5806 5805 5803 5802 5800 5798 5796 5793 5791 5788 5786 5783 5780 5778 5775 5772 5770 5767 5764 5761 5758 5754 5751 5747
5800 5802 5804 5805 5806 5807 5807 5808 5808 5808 5808 5809 5809 5808 5808 5807 5805 5804 5803 5802 5801 5799 5797 5795 5793 5791 5789 5786 5784 5781 5779 5776 5773 5770 5768 5765 5762 5759 5756 5753 5749 5745 5741 5737
5794 5796 5798 5799 5800 5802 5802 5803 5804 5804 5804 5804 5804 5803 5804 5802 5800 5799 5798 5796 5795 5793 5791 5789 5787 5784 5782 5779 5776 5774 5771 5769 5766 5763 5760 5757 5754 5750 5747 5743 5740 5736 5731 5727
5788 5791 5792 5794 5795 5796 5797 5798 5799 5799 5799 5799 5798 5798 5799 5797 5795 5793 5792 5790 5789 5787 5784 5782 5779 5777 5774 5772 5769 5766 5764 5761 5758 5755 5751 5748 5745 5741 5737 5733 5729 5724 5720 5715
5782 5785 5787 5788 5789 5791 5791 5792 5793 5793 5793 5793 5793 5793 5793 5791 5789 5787 5785 5783 5782 5779 5777 5774 5772 5769 5766 5764 5761 5758 5756 5753 5749 5746 5742 5738 5735 5730 5726 5722 5717 5712 5706 5701
5776 5779 5781 5782 5783 5785 5786 5787 5787 5787 5787 5787 5788 5788 5787 5785 5782 5780 5778 5776 5774 5772 5770 5767 5764 5761 5758 5755 5753 5750 5747 5743 5740 5736 5732 5728 5724 5719 5714 5709 5704 5698 5692 5685
5770 5773 5775 5777 5778 5779 5780 5781 5781 5780 5781 5781 5780 5784 5780 5778 5775 5773 5771 5769 5766 5764 5761 5758 5756 5752 5750 5747 5744 5741 5737 5734 5730 5726 5721 5716 5712 5707 5701 5695 5689 5683 5676 5669
5764 5767 5768 5771 5772 5773 5774 5775 5775 5775 5774 5773 5773 5777 5772 5769 5767 5765 5763 5761 5758 5756 5753 5750 5747 5744 5741 5737 5734 5730 5727 5723 5719 5714 5709 5704 5699 5693 5687 5681 5674 5666 5659 5651
5758 5761 5763 5764 5767 5767 5767 5768 5767 5767 5767 5766 5766 5769 5764 5761 5758 5756 5754 5752 5749 5747 5743 5740 5737 5734 5731 5727 5724 5720 5716 5711 5707 5702 5696 5691 5685 5679 5672 5665 5657 5649 5641 5632
5752 5754 5757 5759 5758 5759 5760 5761 5760 5760 5759 5758 5759 5759 5756 5752 5749 5748 5745 5743 5740 5737 5734 5730 5727 5724 5720 5717 5713 5709 5704 5699 5694 5689 5683 5677 5670 5663 5656 5648 5640 5631 5622 5613
5744 5747 5749 5750 5751 5752 5752 5753 5753 5752 5752 5750 5751 5750 5748 5743 5741 5739 5736 5733 5730 5727 5724 5720 5717 5713 5710 5706 5702 5697 5692 5687 5681 5675 5669 5662 5655 5648 5639 5631 5622 5613 5603 5592
5737 5739 5741 5742 5743 5743 5744 5746 5745 5744 5743 5742 5741 5740 5738 5735 5732 5729 5726 5723 5720 5717 5713 5710 5706 5703 5699 5694 5690 5685 5680 5674 5668 5662 5655 5647 5640 5631 5622 5613 5603 5593 5583 5572
5729 5731 5733 5734 5735 5734 5736 5739 5737 5736 5735 5733 5731 5731 5728 5726 5723 5720 5717 5713 5710 5706 5703 5699 5695 5691 5687 5683 5678 5673 5667 5661 5654 5647 5640 5632 5623 5614 5605 5595 5584 5574 5563 5551
5722 5723 5723 5724 5726 5726 5730 5729 5728 5726 5726 5724 5722 5720 5717 5715 5712 5709 5706 5703 5699 5696 5692 5688 5684 5680 5675 5670 5665 5659 5653 5647 5640 5632 5624 5615 5606 5596 5586 5576 5565 5554 5542 5530
5714 5715 5715 5715 5715 5716 5719 5720 5718 5716 5716 5715 5712 5709 5707 5704 5701 5698 5695 5691 5688 5684 5680 5676 5672 5668 5663 5657 5652 5646 5639 5632 5624 5616 5607 5598 5588 5578 5568 5557 5545 5533 5521 5509
5704 5705 5706 5705 5705 5705 5709 5709 5707 5706 5705 5705 5701 5699 5696 5693 5690 5687 5683 5680 5676 5672 5669 5664 5660 5655 5650 5644 5638 5632 5625 5617 5609 5600 5591 5580 5570 5559 5548 5537 5524 5512 5499 5487
5695 5695 5696 5696 5694 5695 5697 5696 5695 5696 5695 5692 5690 5687 5685 5682 5679 5675 5671 5668 5664 5661 5656 5652 5647 5642 5636 5630 5624 5617 5609 5601 5592 5583 5573 5563 5551 5540 5528 5517 5504 5491 5479 5468
5685 5686 5687 5686 5685 5687 5686 5685 5684 5683 5681 5680 5677 5675 5673 5670 5666 5663 5660 5656 5652 5648 5644 5639 5634 5629 5622 5616 5609 5602 5594 5585 5576 5566 5556 5545 5533 5521 5508 5496 5484 5471 5460 5450
5675 5677 5676 5677 5678 5676 5675 5673 5672 5671 5670 5667 5665 5663 5660 5657 5654 5651 5648 5644 5640 5636 5631 5626 5621 5615 5608 5601 5593 5586 5577 5568 5559 5549 5538 5526 5515 5502 5489 5477 5465 5454 5443 5433
5664 5665 5665 5665 5666 5665 5663 5662 5661 5659 5657 5655 5653 5651 5648 5645 5642 5639 5636 5632 5628 5623 5618 5613 5607 5601 5594 5586 5578 5569 5560 5551 5541 5531 5520 5508 5496 5484 5471 5459 5447 5437 5427 5418
5653 5654 5654 5654 5654 5653 5652 5650 5649 5647 5645 5643 5641 5638 5636 5633 5630 5627 5623 5619 5615 5610 5605 5599 5593 5586 5579 5571 5562 5552 5543 5533 5523 5512 5501 5489 5477 5466 5455 5444 5432 5422 5413 5402
5642 5643 5643 5643 5643 5641 5641 5639 5637 5635 5634 5631 5629 5626 5624 5621 5618 5614 5611 5606 5602 5596 5591 5585 5578 5571 5563 5554 5545 5535 5525 5515 5504 5494 5482 5471 5460 5448 5438 5429 5421 5410 5400 5391